DW3835 Weather Reports


Display with metric or nautical units.
time (UTC)temp
F
wind
direction
speed
MPH
gust
MPH
rain 1hr
in
rain 24hr
in
rain mn
in
humidity
%
barometer
mb
20260506203805 70 184 0.0 5.0 0.00 0.00 0.00 70 1017.6
20260506202738 70 85 0.0 3.0 0.00 0.00 0.00 69 1017.8
20260506201729 69 161 0.0 2.0 0.00 0.00 0.00 71 1017.8
20260506200716 68 77 0.0 4.0 0.00 0.00 0.00 72 1018.0
20260506195641 69 177 0.0 4.0 0.00 0.00 0.00 71 1018.1
20260506194626 69 160 0.0 3.0 0.00 0.00 0.00 70 1018.1
20260506193604 69 150 0.0 3.0 0.00 0.00 0.00 72 1018.2
20260506192536 69 304 1.0 5.0 0.00 0.00 0.00 70 1018.3
20260506191553 68 92 0.0 5.0 0.00 0.00 0.00 73 1018.4
20260506190601 68 192 0.0 4.0 0.00 0.00 0.00 70 1018.4
20260506184449 68 244 0.0 2.0 0.00 0.00 0.00 70 1018.4
20260506183444 68 88 0.0 4.0 0.00 0.00 0.00 73 1018.5
20260506182417 67 88 0.0 4.0 0.00 0.00 0.00 70 1018.6
20260506181408 67 35 0.0 5.0 0.00 0.00 0.00 72 1018.6
20260506180432 67 109 0.0 5.0 0.00 0.00 0.00 72 1018.6
20260506175433 66 43 0.0 1.0 0.00 0.00 0.00 76 1018.5
20260506174448 64 91 0.0 0.0 0.00 0.00 0.00 75 1018.6
20260506173455 64 240 0.0 4.0 0.00 0.00 0.00 74 1018.6
20260506172451 65 265 0.0 3.0 0.00 0.00 0.00 74 1018.6
20260506171446 65 198 0.0 2.0 0.00 0.00 0.00 74 1018.7
20260506170431 64 98 0.0 3.0 0.00 0.00 0.00 75 1018.8
20260506165411 63 53 0.0 2.0 0.00 0.00 0.00 74 1018.7
20260506164341 63 165 0.0 2.0 0.00 0.00 0.00 75 1018.7
20260506163329 62 124 0.0 2.0 0.00 0.00 0.00 79 1018.7
20260506161224 61 306 0.0 1.0 0.00 0.00 0.00 80 1018.7
20260506160222 60 96 0.0 2.0 0.00 0.00 0.00 80 1018.9
20260506155201 59 154 0.0 2.0 0.00 0.00 0.00 81 1018.9
20260506154222 58 71 0.0 2.0 0.00 0.00 0.00 83 1018.9
20260506153150 58 148 0.0 2.0 0.00 0.00 0.00 82 1018.9
20260506152145 57 100 0.0 1.0 0.00 0.00 0.00 84 1018.9
20260506151145 57 86 0.0 1.0 0.00 0.00 0.00 86 1018.8
20260506150152 56 85 0.0 2.0 0.00 0.00 0.00 87 1018.9
20260506145124 56 94 0.0 1.0 0.00 0.00 0.00 88 1018.8
20260506144129 55 80 0.0 1.0 0.00 0.00 0.00 89 1018.7
20260506141942 54 33 0.0 0.0 0.00 0.00 0.00 90 1018.5
20260506141006 54 30 0.0 0.0 0.00 0.00 0.00 90 1018.6
20260506135943 54 30 0.0 0.0 0.00 0.00 0.00 90 1018.4
20260506134918 54 30 0.0 0.0 0.00 0.00 0.00 89 1018.2
20260506133910 54 30 0.0 0.0 0.00 0.00 0.00 89 1018.3
20260506132852 54 30 0.0 0.0 0.00 0.00 0.00 89 1018.2
20260506131824 54 30 0.0 0.0 0.00 0.00 0.00 89 1018.2
20260506125650 54 30 0.0 0.0 0.00 0.00 0.00 89 1018.0
20260506122350 54 30 0.0 0.0 0.00 0.00 0.00 89 1018.0
20260506121321 54 30 0.0 0.0 0.00 0.00 0.00 89 1017.8
20260506120303 54 30 0.0 0.0 0.00 0.00 0.00 89 1017.8
20260506115307 54 30 0.0 0.0 0.00 0.00 0.00 89 1017.8
20260506114327 54 30 0.0 0.0 0.00 0.00 0.00 89 1017.7
20260506112208 54 30 0.0 0.0 0.00 0.00 0.00 90 1017.5
20260506111226 54 30 0.0 0.0 0.00 0.00 0.00 89 1017.4
20260506110210 54 32 0.0 0.0 0.00 0.00 0.00 89 1017.4
20260506105217 54 32 0.0 0.0 0.00 0.00 0.00 89 1017.4
20260506103059 53 32 0.0 0.0 0.00 0.00 0.00 89 1017.4
20260506102120 53 33 0.0 0.0 0.00 0.00 0.00 89 1017.2
20260506101143 53 33 0.0 0.0 0.00 0.00 0.00 89 1017.2
20260506095041 53 33 0.0 0.0 0.00 0.00 0.00 89 1017.3
20260506094031 53 32 0.0 0.0 0.00 0.00 0.00 89 1017.2
20260506093033 53 32 0.0 0.0 0.00 0.00 0.00 89 1017.3
20260506090833 53 58 0.0 0.0 0.00 0.00 0.00 89 1017.3
20260506085824 52 52 0.0 0.0 0.00 0.00 0.00 89 1017.1
20260506084757 52 53 0.0 0.0 0.00 0.01 0.00 89 1017.1
20260506083751 52 51 0.0 0.0 0.00 0.01 0.00 89 1017.1
20260506081636 53 49 0.0 0.0 0.00 0.02 0.00 89 1017.3
20260506080617 53 49 0.0 0.0 0.00 0.04 0.00 88 1017.3
20260506072633 54 55 0.0 0.0 0.00 0.08 0.00 88 1017.1
20260506071612 54 55 0.0 0.0 0.00 0.08 0.00 88 1016.9
20260506070614 54 61 0.0 0.0 0.00 0.10 0.00 88 1016.8
20260506061433 54 125 0.0 1.0 0.00 0.11 0.10 88 1016.4
20260506060457 54 294 0.0 0.0 0.00 0.12 0.10 88 1016.5
20260506050425 54 306 0.0 0.0 0.00 0.14 0.10 87 1016.2
20260506043208 54 32 0.0 0.0 0.00 0.16 0.10 87 1015.8
20260506041006 55 24 0.0 0.0 0.00 0.16 0.10 86 1015.6
20260506040029 55 23 0.0 0.0 0.00 0.16 0.10 86 1015.6
20260506035000 55 5 0.0 0.0 0.00 0.16 0.10 86 1015.4
20260506033927 56 57 0.0 0.0 0.00 0.16 0.10 85 1015.3
20260506032859 56 143 0.0 0.0 0.00 0.16 0.10 85 1015.1
20260506031921 56 98 0.0 0.0 0.00 0.16 0.10 84 1014.9
20260506030925 57 170 0.0 1.0 0.00 0.16 0.10 84 1014.7
20260506025853 57 157 0.0 0.0 0.00 0.16 0.10 83 1014.6
20260506023752 57 72 0.0 0.0 0.00 0.16 0.10 82 1014.5
20260506022727 58 78 0.0 0.0 0.00 0.16 0.10 82 1014.5
20260506020602 58 78 0.0 2.0 0.00 0.16 0.10 82 1014.2
20260506015536 58 167 0.0 0.0 0.00 0.16 0.10 81 1014.0
20260506013417 59 55 0.0 0.0 0.00 0.16 0.10 82 1013.9
20260506012421 59 181 0.0 4.0 0.00 0.16 0.10 81 1014.0
20260506011349 59 84 0.0 4.0 0.00 0.16 0.10 82 1014.0
20260506010338 59 38 0.0 3.0 0.00 0.16 0.10 82 1014.0
20260506004217 60 173 0.0 3.0 0.00 0.16 0.10 81 1013.9
20260506003205 60 121 0.0 3.0 0.00 0.16 0.10 81 1013.9
20260506002147 60 161 0.0 3.0 0.00 0.16 0.10 81 1013.9
20260506001200 60 296 0.0 5.0 0.00 0.16 0.10 82 1013.7
20260506000150 60 149 0.0 5.0 0.00 0.16 0.10 83 1013.7
20260505235121 60 177 0.0 3.0 0.00 0.16 0.10 83 1013.8
20260505234047 60 184 0.0 3.0 0.00 0.16 0.10 82 1013.8
20260505233036 60 171 0.0 3.0 0.00 0.16 0.10 82 1013.7
20260505232037 60 166 0.0 2.0 0.00 0.16 0.10 82 1013.8
20260505231100 60 88 0.0 2.0 0.00 0.16 0.10 82 1013.8
20260505230114 61 96 0.0 1.0 0.00 0.16 0.10 82 1013.8
20260505225102 60 92 0.0 2.0 0.00 0.16 0.10 83 1013.8
20260505224056 60 150 0.0 3.0 0.00 0.16 0.10 83 1013.8
20260505223041 60 138 0.0 1.0 0.00 0.16 0.10 82 1013.8
20260505222043 61 45 0.0 1.0 0.00 0.16 0.10 83 1013.9
20260505221034 60 138 0.0 5.0 0.00 0.16 0.10 81 1013.8
20260505220042 61 163 0.0 5.0 0.00 0.16 0.10 82 1013.9
20260505215041 61 173 0.0 4.0 0.00 0.16 0.10 81 1013.9
20260505214047 60 195 0.0 4.0 0.00 0.16 0.10 83 1013.9
20260505213027 60 196 0.0 3.0 0.00 0.16 0.10 84 1014.0
20260505210830 60 188 0.0 3.0 0.00 0.16 0.10 85 1014.0
20260505205836 60 154 0.0 4.0 0.00 0.16 0.10 86 1014.0